Location: Ferchesar
(52.6477°N, 12.4298°E)
Time: 17:41:28
(UTC+01:00)

Vanguard 1 - Pass Details

Date: 10 December 2021
Orbit: 652 x 3830 km, 34.2° (Epoch: 22 January)

Event Time Altitude Azimuth Distance (km) Brightness Sun altitude
Rises 06:04:11 0° 278° (W) 7,938 - -17.9°
Exits shadow 06:14:14 - 258° (WSW) 6,633 13.7 -16.4°
Reaches altitude 10° 06:15:06 10° 256° (WSW) 6,535 13.7 -16.3°
Maximum altitude 06:21:32 12° 237° (WSW) 5,936 13.7 -15.3°
Drops below altitude 10° 06:27:18 10° 218° (SW) 5,684 13.8 -14.5°
Sets 06:35:03 0° 192° (SSW) 5,931 14.2 -13.4°
